Location: Nebraska Star Party
(42.6000°N, 100.8833°W)
Time: 17:25:07
(UTC-05:00)

Amateur Radio Satellites - All Passes

Search period start: 01 July 2016 16:55
Search period end: 02 July 2016 16:55
Location: Nebraska Star Party, 42.6000°N, 100.8833°W

Satellite Date Start Highest point End Downlink Frequencies (MHz)
Time Altitude Azimuth
AIST 1 01 Jul 17:16:08 17:20:00 33° 91° (E) 17:23:52
Cubesat XI-IV 01 Jul 17:25:11 17:26:08 10° 55° (NE) 17:27:06 437.490
SWISSCUBE 01 Jul 17:28:10 17:31:28 19° 297° (WNW) 17:34:45 437.505
GONETS M04 01 Jul 17:41:18 17:46:54 19° 77° (ENE) 17:52:29
NOAA 18 01 Jul 17:44:14 17:47:53 19° 59° (ENE) 17:51:35 137.9125
KKS-1 01 Jul 17:45:34 17:50:02 87° 289° (WNW) 17:54:30 437.445
RS-15 01 Jul 17:50:41 18:00:20 26° 10° (N) 18:10:09 29.354- 29.394
SO-50 01 Jul 17:51:45 17:55:26 21° 319° (NW) 17:59:08 436.795
BEESAT 01 Jul 17:54:11 17:56:06 12° 301° (WNW) 17:58:02 436.000
CUTE-I 01 Jul 17:55:09 17:58:56 20° 61° (ENE) 18:02:45 437.470
ITUPSAT 1 01 Jul 17:57:42 17:59:26 12° 302° (WNW) 18:01:09 437.325
MOZHAYETS 4 01 Jul 18:00:37 18:05:15 65° 285° (WNW) 18:09:48
CUBESAT XI-V 01 Jul 18:01:41 18:04:30 16° 91° (E) 18:07:18 437.345
CUSAT 1 01 Jul 18:07:47 18:08:08 10° 62° (ENE) 18:08:31 437.405
STARS 01 Jul 18:08:21 18:12:47 84° 102° (ESE) 18:17:12 437.465
HORYU 2 01 Jul 18:09:32 18:13:50 51° 260° (W) 18:18:12 437.375
NOAA 15 01 Jul 18:10:54 18:15:41 36° 67° (ENE) 18:20:28 137.62
BRITE-PL 01 Jul 18:15:07 18:19:29 33° 70° (ENE) 18:23:34 437.365/2234.400
AO-7 01 Jul 18:21:04 18:26:45 20° 269° (W) 18:32:30 29.400- 29.500
GOMX 1 01 Jul 18:32:08 18:35:29 21° 67° (ENE) 18:38:44 467.674
AIST 1 01 Jul 18:54:25 18:57:40 21° 288° (WNW) 19:00:56
Cubesat XI-IV 01 Jul 18:59:55 19:05:13 70° 73° (ENE) 19:10:36 437.490
DANDE 01 Jul 19:00:18 19:03:52 21° 64° (ENE) 19:06:45 436.750
Cosmos 2499 01 Jul 19:02:36 19:10:25 45° 87° (E) 19:18:38 435.465 / 435.565
LilacSat-2 01 Jul 19:08:39 19:12:26 80° 74° (ENE) 19:16:16 437.200
DOVE 4 01 Jul 19:14:39 19:18:08 25° 68° (ENE) 19:21:34 437.250
NOAA 18 01 Jul 19:22:33 19:27:59 68° 257° (WSW) 19:33:29 137.9125
CUTE-I 01 Jul 19:33:14 19:38:30 60° 258° (WSW) 19:43:50 437.470
GONETS M04 01 Jul 19:33:47 19:42:30 87° 277° (W) 19:51:15
CUBESAT XI-V 01 Jul 19:37:42 19:42:12 53° 288° (WNW) 19:46:39 437.345
CANX-2 01 Jul 19:40:26 19:42:52 15° 63° (ENE) 19:45:19 2200.000
CINEMA 3 01 Jul 19:45:43 19:48:16 16° 64° (ENE) 19:50:51 145.822/145.860
STARS 01 Jul 19:47:24 19:48:28 11° 300° (WNW) 19:49:32 437.465
CUSAT 1 01 Jul 19:47:41 19:50:35 28° 269° (W) 19:53:03 437.405
NOAA 15 01 Jul 19:50:52 19:55:28 30° 264° (W) 20:00:06 137.62
HO-68 01 Jul 19:53:18 19:59:44 37° 62° (ENE) 20:06:11 435.675
BRITE-PL 01 Jul 19:53:53 19:57:59 26° 264° (W) 20:01:52 437.365/2234.400
SEEDS 01 Jul 19:57:23 19:59:40 14° 63° (ENE) 20:01:58 437.485
CUTE 1.7 + AOD 2 01 Jul 19:58:54 20:02:03 20° 66° (ENE) 20:05:12 437.475
RS-15 01 Jul 20:04:59 20:16:51 50° 42° (NE) 20:28:41 29.354- 29.394
GOMX 1 01 Jul 20:09:16 20:13:25 36° 262° (W) 20:17:24 467.674
AAUSAT CUBESAT 2 01 Jul 20:25:59 20:28:35 16° 65° (ENE) 20:31:11 437.432
Cubesat XI-IV 01 Jul 20:42:46 20:45:49 15° 270° (W) 20:48:55 437.490
DANDE 01 Jul 20:43:04 20:46:41 24° 274° (W) 20:49:37 436.750
STRAND 1 01 Jul 20:45:27 20:50:29 51° 100° (E) 20:55:28 437.568
DOVE 4 01 Jul 20:52:11 20:55:47 27° 264° (W) 20:59:21 437.250
CUBEBUG 2 01 Jul 20:54:31 20:58:04 27° 68° (ENE) 21:01:41 437.445
Cosmos 2499 01 Jul 20:55:37 21:03:33 43° 288° (WNW) 21:11:54 435.465 / 435.565
COMPASS 1 01 Jul 21:01:56 21:05:59 48° 73° (ENE) 21:10:04 437.405
ZACube-1 01 Jul 21:06:00 21:08:47 17° 64° (ENE) 21:11:37 437.345
PRISM 01 Jul 21:07:53 21:08:43 10° 90° (E) 21:09:33 437.425
Oscar 11 01 Jul 21:08:30 21:11:39 20° 65° (ENE) 21:14:49 145.826/435.025
CANX-2 01 Jul 21:14:04 21:18:16 54° 260° (W) 21:22:30 2200.000
AUBIESAT-1 01 Jul 21:16:47 21:19:42 30° 65° (ENE) 21:22:42 437.475
FUNcube-1 01 Jul 21:20:54 21:24:14 23° 67° (ENE) 21:27:38 145.935
CINEMA 3 01 Jul 21:21:06 21:25:03 44° 261° (W) 21:29:06 145.822/145.860
SEEDS 01 Jul 21:30:44 21:34:55 56° 260° (W) 21:39:08 437.485
CUTE 1.7 + AOD 2 01 Jul 21:33:38 21:37:38 38° 263° (W) 21:41:40 437.475
UWE-3 01 Jul 21:33:40 21:37:44 49° 72° (ENE) 21:41:55 435.000/436.395/437.385
GONETS M04 01 Jul 21:34:54 21:40:41 19° 300° (WNW) 21:46:31
HO-68 01 Jul 21:40:30 21:47:18 45° 261° (W) 21:54:09 435.675
AO-85 01 Jul 21:40:31 21:45:52 64° 120° (ESE) 21:51:04 145.980
DELFI C3 01 Jul 21:42:24 21:45:18 19° 66° (ENE) 21:48:13 145.870
HUMSAT D 01 Jul 21:49:04 21:50:35 12° 61° (ENE) 21:52:07 437.325/437.525
M-CUBED/EXP-1 PRIME 01 Jul 21:59:04 22:02:14 53° 254° (WSW) 22:05:30 437.505
AAUSAT CUBESAT 2 01 Jul 21:59:38 22:03:41 47° 261° (W) 22:07:45 437.432
RS-15 01 Jul 22:17:50 22:29:50 61° 246° (WSW) 22:41:41 29.354- 29.394
STRAND 1 01 Jul 22:25:26 22:29:18 22° 297° (WNW) 22:33:07 437.568
CUBEBUG 2 01 Jul 22:31:06 22:34:38 26° 265° (W) 22:38:17 437.445
COMPASS 1 01 Jul 22:39:22 22:41:49 15° 269° (W) 22:44:15 437.405
PRISM 01 Jul 22:40:24 22:44:27 63° 286° (WNW) 22:48:27 437.425
ZACube-1 01 Jul 22:40:39 22:44:42 45° 262° (W) 22:48:53 437.345
Oscar 11 01 Jul 22:43:26 22:47:30 40° 262° (W) 22:51:38 145.826/435.025
AUBIESAT-1 01 Jul 22:52:27 22:54:21 14° 262° (W) 22:56:15 437.475
TIGRISAT 01 Jul 22:54:32 22:56:46 13° 90° (E) 22:58:59 435.000
FUNcube-1 01 Jul 22:56:29 23:00:18 33° 264° (W) 23:04:13 145.935
UNISAT 6 01 Jul 23:00:20 23:03:16 16° 91° (E) 23:06:13 437.425
SO-50 01 Jul 23:01:34 23:04:00 14° 34° (NNE) 23:06:24 436.795
UWE-3 01 Jul 23:12:07 23:14:31 15° 270° (W) 23:16:57 435.000/436.395/437.385
DELFI C3 01 Jul 23:16:13 23:19:55 35° 263° (W) 23:23:39 145.870
VELOX 1 01 Jul 23:21:19 23:23:41 14° 62° (ENE) 23:26:02 145.980
HUMSAT D 01 Jul 23:21:27 23:25:37 70° 259° (WSW) 23:29:53 437.325/437.525
AO-85 01 Jul 23:22:25 23:26:46 24° 317° (NW) 23:30:58 145.980
ANTELSAT 01 Jul 23:38:53 23:43:17 39° 98° (E) 23:47:42 437.575/2403.000
UKube-1 01 Jul 23:42:20 23:44:46 15° 62° (ENE) 23:47:11 .
YUBILEINY 01 Jul 23:44:57 23:53:04 38° 71° (ENE) 00:01:09 435.215
AISAT 02 Jul 00:00:39 00:04:41 37° 70° (ENE) 00:08:43 437.250
NANOSAT C BR1 02 Jul 00:03:30 00:03:59 10° 89° (E) 00:04:29 145.865
QB50P1 02 Jul 00:07:27 00:09:16 12° 90° (E) 00:11:06 145.935-145.965
DX 1 02 Jul 00:07:36 00:11:28 32° 69° (ENE) 00:15:20 434.975-435.025
POPSAT HIP 1 02 Jul 00:10:46 00:12:54 13° 91° (E) 00:15:01 437.405
ESTCUBE 1 02 Jul 00:11:20 00:15:51 73° 75° (ENE) 00:20:23 437.505/2401.250
DUCHIFAT 1 02 Jul 00:20:21 00:22:55 16° 92° (E) 00:25:30 145.980
QB50P2 02 Jul 00:23:13 00:26:23 20° 93° (E) 00:29:33 145.880/145.840
POLYITAN 1 02 Jul 00:25:48 00:29:02 20° 94° (E) 00:32:15 437.675
Cosmos 2504 02 Jul 00:28:44 00:35:39 25° 63° (ENE) 00:42:19 435.465 / 435.565
TIGRISAT 02 Jul 00:29:14 00:33:52 67° 286° (WNW) 00:38:32 435.000
50 SAT 02 Jul 00:31:31 00:35:14 84° 77° (ENE) 00:38:59 437.505
RS-15 02 Jul 00:35:18 00:39:31 12° 268° (W) 00:43:45 29.354- 29.394
UNISAT 6 02 Jul 00:35:43 00:40:17 54° 287° (WNW) 00:44:52 437.425
CUBEBUG 1 02 Jul 00:37:14 00:41:35 87° 255° (WSW) 00:45:57 437.445
SO-50 02 Jul 00:40:41 00:45:22 72° 55° (NE) 00:49:53 436.795
TISAT 1 02 Jul 00:44:11 00:45:41 12° 61° (ENE) 00:47:09 437.305
VELOX 1 02 Jul 00:55:18 00:59:39 60° 258° (WSW) 01:04:02 145.980
Cosmos 2491 02 Jul 00:56:44 01:05:04 51° 89° (E) 01:13:24 435.465 / 435.565
BUGSAT 1 02 Jul 01:00:16 01:03:14 19° 94° (E) 01:06:13 437.445
SPROUT 02 Jul 01:10:15 01:14:30 85° 76° (ENE) 01:18:46 437.525
ANTELSAT 02 Jul 01:16:06 01:19:45 23° 294° (WNW) 01:23:26 437.575/2403.000
UKube-1 02 Jul 01:16:07 01:20:21 56° 259° (W) 01:24:37 .
NANOSAT C BR1 02 Jul 01:35:57 01:40:12 71° 284° (WNW) 01:44:26 145.865
AISAT 02 Jul 01:37:56 01:41:15 21° 266° (W) 01:44:36 437.250
QB50P1 02 Jul 01:41:13 01:45:25 59° 287° (WNW) 01:49:37 145.935-145.965
YUBILEINY 02 Jul 01:41:40 01:50:02 50° 272° (W) 01:58:24 435.215
DX 1 02 Jul 01:44:13 01:47:41 23° 265° (W) 01:51:10 434.975-435.025
JAS-2 02 Jul 01:44:40 01:49:30 31° 95° (E) 01:54:05 435.910
POPSAT HIP 1 02 Jul 01:44:50 01:49:01 55° 287° (WNW) 01:53:10 437.405
BEESAT 02 Jul 01:46:33 01:48:42 13° 59° (ENE) 01:50:52 436.000
ITUPSAT 1 02 Jul 01:49:51 01:52:17 14° 60° (ENE) 01:54:42 437.325
ESTCUBE 1 02 Jul 01:51:51 01:53:09 11° 271° (W) 01:54:28 437.505/2401.250
DUCHIFAT 1 02 Jul 01:54:47 01:58:52 46° 288° (WNW) 02:02:56 145.980
QB50P2 02 Jul 01:58:22 02:02:18 36° 290° (WNW) 02:06:13 145.880/145.840
POLYITAN 1 02 Jul 02:01:00 02:04:56 36° 290° (WNW) 02:08:51 437.675
BEESAT 3 02 Jul 02:02:44 02:05:55 24° 114° (ESE) 02:09:07 437.485
TISAT 1 02 Jul 02:16:38 02:20:46 68° 258° (WSW) 02:24:56 437.305
PCSat 02 Jul 02:20:26 02:25:45 61° 116° (ESE) 02:31:08 145.827
Cosmos 2504 02 Jul 02:21:11 02:30:04 79° 265° (W) 02:38:29 435.465 / 435.565
SO-50 02 Jul 02:23:01 02:25:12 13° 252° (WSW) 02:27:20 436.795
Oscar 19 02 Jul 02:30:22 02:34:49 29° 96° (E) 02:39:16 437.125/150
O/OREOS (USA 219) 02 Jul 02:31:41 02:35:38 31° 105° (ESE) 02:39:34 437.305
BUGSAT 1 02 Jul 02:34:56 02:38:44 36° 289° (WNW) 02:42:32 437.445
BEESAT 2 02 Jul 02:47:38 02:51:21 40° 117° (ESE) 02:55:05 435.950
Cosmos 2491 02 Jul 02:54:13 03:02:08 37° 290° (WNW) 03:10:05 435.465 / 435.565
SWISSCUBE 02 Jul 02:56:14 03:00:59 66° 73° (ENE) 03:05:47 437.505
KKS-1 02 Jul 03:11:53 03:12:33 10° 59° (ENE) 03:13:13 437.445
Gurwin Techsat 1B 02 Jul 03:17:51 03:22:45 36° 97° (E) 03:27:37 435.225
BEESAT 02 Jul 03:21:02 03:25:50 79° 257° (WSW) 03:30:40 436.000
ITUPSAT 1 02 Jul 03:24:41 03:29:29 75° 257° (WSW) 03:34:20 437.325
MOZHAYETS 4 02 Jul 03:28:10 03:30:44 15° 62° (ENE) 03:33:18
JAS-2 02 Jul 03:29:44 03:34:38 33° 295° (WNW) 03:39:15 435.910
BEESAT 3 02 Jul 03:39:54 03:43:27 32° 311° (NW) 03:47:02 437.485
AIST 2 02 Jul 04:03:54 04:06:08 14° 110° (ESE) 04:08:22 435.215
PCSat 02 Jul 04:05:16 04:09:35 24° 315° (NW) 04:13:56 145.827
Oscar 19 02 Jul 04:09:32 04:14:09 35° 292° (WNW) 04:18:46 437.125/150
O/OREOS (USA 219) 02 Jul 04:11:11 04:15:01 27° 302° (WNW) 04:18:52 437.305
Cosmos 2504 02 Jul 04:17:09 04:21:52 16° 286° (WNW) 04:26:30 435.465 / 435.565
BEESAT 2 02 Jul 04:26:13 04:29:20 22° 315° (NW) 04:32:29 435.950
AO-7 02 Jul 04:26:17 04:33:12 28° 94° (E) 04:40:01 29.400- 29.500
AO-85 02 Jul 04:33:39 04:35:23 12° 31° (NNE) 04:37:04 145.980
SWISSCUBE 02 Jul 04:36:46 04:39:13 14° 270° (W) 04:41:42 437.505
ITAMSAT 1 02 Jul 04:40:08 04:45:23 73° 103° (ESE) 04:50:35 435.822/435.867
KKS-1 02 Jul 04:43:59 04:48:25 88° 260° (W) 04:52:52 437.445
Cosmos 2499 02 Jul 04:54:16 04:59:40 17° 58° (ENE) 05:04:53 435.465 / 435.565
Gurwin Techsat 1B 02 Jul 04:57:59 05:02:35 31° 294° (WNW) 05:07:11 435.225
AIST 1 02 Jul 04:59:14 05:03:29 79° 265° (W) 05:07:45
MOZHAYETS 4 02 Jul 05:02:46 05:07:22 64° 259° (W) 05:12:00
STARS 02 Jul 05:05:22 05:09:42 80° 77° (ENE) 05:14:06 437.465
CUBESAT XI-V 02 Jul 05:05:42 05:08:53 18° 64° (ENE) 05:12:05 437.345
PHONESAT 2.4 02 Jul 05:33:21 05:34:51 13° 151° (SSE) 05:36:20 2401.200-2431.200
AIST 2 02 Jul 05:40:06 05:44:09 56° 306° (NW) 05:48:14 435.215
GONETS M04 02 Jul 05:43:14 05:51:40 49° 75° (ENE) 06:00:04
HORYU 2 02 Jul 05:59:54 06:03:47 28° 96° (E) 06:07:37 437.375
AO-85 02 Jul 06:12:23 06:16:56 60° 53° (NE) 06:21:03 145.980
AO-7 02 Jul 06:18:13 06:26:32 68° 293° (WNW) 06:34:47 29.400- 29.500
ITAMSAT 1 02 Jul 06:21:07 06:24:13 16° 301° (WNW) 06:27:20 435.822/435.867
STRAND 1 02 Jul 06:27:20 06:28:41 11° 56° (ENE) 06:30:03 437.568
NOAA 15 02 Jul 06:27:22 06:29:10 12° 88° (E) 06:30:58 137.62
CUBESAT XI-V 02 Jul 06:41:19 06:45:53 51° 261° (W) 06:50:28 437.345
Cosmos 2499 02 Jul 06:45:38 06:54:27 79° 82° (E) 07:02:37 435.465 / 435.565
CUSAT 1 02 Jul 07:06:05 07:12:13 29° 91° (E) 07:17:29 437.405
PHONESAT 2.4 02 Jul 07:08:03 07:10:58 40° 166° (SSE) 07:13:52 2401.200-2431.200
ISS 02 Jul 07:15:02 07:16:12 12° 130° (SE) 07:17:23 145.825
Cubesat XI-IV 02 Jul 07:16:58 07:21:28 26° 94° (E) 07:25:56 437.490
HORYU 2 02 Jul 07:36:23 07:40:17 29° 292° (WNW) 07:44:10 437.375
GONETS M04 02 Jul 07:40:28 07:48:14 38° 275° (W) 07:56:01
NOAA 18 02 Jul 07:43:50 07:49:13 49° 100° (E) 07:54:35 137.9125
CUTE-I 02 Jul 07:49:30 07:54:46 52° 100° (E) 07:59:59 437.470
AO-85 02 Jul 07:54:29 07:56:44 14° 253° (WSW) 07:58:52 145.980
BRITE-PL 02 Jul 07:56:38 08:00:48 88° 292° (WNW) 08:05:03 437.365/2234.400
STRAND 1 02 Jul 08:01:51 08:06:59 78° 74° (ENE) 08:12:10 437.568
NOAA 15 02 Jul 08:04:20 08:09:37 86° 286° (WNW) 08:14:51 137.62
DANDE 02 Jul 08:04:23 08:12:08 44° 92° (E) 08:19:05 436.750
GOMX 1 02 Jul 08:09:09 08:13:21 55° 100° (E) 08:17:44 467.674
AO-7 02 Jul 08:12:55 08:17:47 17° 314° (NW) 08:22:41 29.400- 29.500
LilacSat-2 02 Jul 08:15:25 08:19:19 73° 285° (WNW) 08:23:11 437.200
Cosmos 2499 02 Jul 08:40:18 08:46:28 22° 282° (WNW) 08:52:23 435.465 / 435.565
PHONESAT 2.4 02 Jul 08:44:22 08:47:23 57° 183° (S) 08:50:24 2401.200-2431.200
CUSAT 1 02 Jul 08:46:50 08:54:07 53° 283° (WNW) 09:00:04 437.405
DOVE 4 02 Jul 08:48:33 08:52:57 68° 101° (ESE) 08:57:36 437.250
ISS 02 Jul 08:48:56 08:52:11 86° 325° (NW) 08:55:28 145.825
Cubesat XI-IV 02 Jul 08:56:37 09:01:40 42° 292° (WNW) 09:06:41 437.490
CANX-2 02 Jul 08:58:51 09:02:21 24° 94° (E) 09:05:48 2200.000
HO-68 02 Jul 09:07:10 09:13:40 35° 96° (E) 09:20:07 435.675
CINEMA 3 02 Jul 09:14:08 09:18:29 38° 98° (E) 09:22:58 145.822/145.860
SEEDS 02 Jul 09:14:29 09:17:49 22° 94° (E) 09:21:06 437.485
CUTE 1.7 + AOD 2 02 Jul 09:17:43 09:21:37 33° 96° (E) 09:25:29 437.475
UWE-3 02 Jul 09:25:06 09:25:58 10° 88° (E) 09:26:52 435.000/436.395/437.385
NOAA 18 02 Jul 09:25:07 09:29:34 25° 297° (WNW) 09:34:01 137.9125
PCSat 02 Jul 09:26:04 09:28:20 12° 34° (NE) 09:30:35 145.827
PRISM 02 Jul 09:29:59 09:34:09 83° 257° (WSW) 09:38:18 437.425
CUTE-I 02 Jul 09:30:21 09:34:26 23° 297° (WNW) 09:38:31 437.470
AAUSAT CUBESAT 2 02 Jul 09:41:34 09:44:59 24° 94° (E) 09:48:22 437.432
STRAND 1 02 Jul 09:44:28 09:46:44 13° 271° (W) 09:49:02 437.568
NOAA 15 02 Jul 09:46:28 09:48:34 12° 303° (WNW) 09:50:41 137.62
DANDE 02 Jul 09:47:07 09:54:58 44° 286° (WNW) 10:01:55 436.750
GOMX 1 02 Jul 09:48:46 09:51:05 14° 296° (WNW) 09:53:27 467.674
TIGRISAT 02 Jul 09:54:46 09:56:37 13° 61° (ENE) 09:58:29 435.000
UNISAT 6 02 Jul 10:00:33 10:03:06 15° 62° (ENE) 10:05:41 437.425
BEESAT 3 02 Jul 10:18:57 10:22:02 21° 44° (NE) 10:25:06 437.485
COMPASS 1 02 Jul 10:19:19 10:23:32 84° 101° (E) 10:27:41 437.405
CUBEBUG 2 02 Jul 10:19:50 10:24:26 58° 100° (E) 10:29:08 437.445
PHONESAT 2.4 02 Jul 10:21:01 10:23:44 28° 199° (SSW) 10:26:27 2401.200-2431.200
ISS 02 Jul 10:26:23 10:29:00 22° 345° (NNW) 10:31:37 145.825
AUBIESAT-1 02 Jul 10:27:58 10:31:21 24° 101° (ESE) 10:34:53 437.475
ZACube-1 02 Jul 10:28:01 10:32:09 32° 96° (E) 10:36:16 437.345
DOVE 4 02 Jul 10:28:09 10:30:12 13° 297° (WNW) 10:32:17 437.250
Oscar 11 02 Jul 10:29:47 10:33:47 34° 97° (E) 10:37:43 145.826/435.025
RS-15 02 Jul 10:33:15 10:41:12 22° 98° (E) 10:49:21 29.354- 29.394
CANX-2 02 Jul 10:34:26 10:38:13 30° 291° (WNW) 10:41:55 2200.000
ANTELSAT 02 Jul 10:38:27 10:42:26 36° 69° (ENE) 10:46:30 437.575/2403.000
FUNcube-1 02 Jul 10:43:03 10:47:26 44° 98° (E) 10:51:48 145.935
SEEDS 02 Jul 10:49:47 10:53:33 32° 290° (WNW) 10:57:18 437.485
CINEMA 3 02 Jul 10:51:45 10:55:25 24° 293° (WNW) 10:59:12 145.822/145.860
DELFI C3 02 Jul 10:53:11 10:56:35 26° 95° (E) 10:59:55 145.870
CUTE 1.7 + AOD 2 02 Jul 10:53:57 10:57:16 22° 293° (WNW) 11:00:34 437.475
HO-68 02 Jul 10:54:41 11:01:30 47° 294° (WNW) 11:08:18 435.675
UWE-3 02 Jul 10:58:19 11:02:58 81° 284° (WNW) 11:07:39 435.000/436.395/437.385
QB50P1 02 Jul 11:01:46 11:02:57 11° 61° (ENE) 11:04:09 145.935-145.965
BEESAT 2 02 Jul 11:04:56 11:08:34 32° 49° (NE) 11:12:10 435.950
POPSAT HIP 1 02 Jul 11:04:59 11:06:33 12° 61° (ENE) 11:08:07 437.405
HUMSAT D 02 Jul 11:05:02 11:08:03 18° 92° (E) 11:11:02 437.325/437.525
Cosmos 2491 02 Jul 11:06:27 11:13:28 26° 65° (ENE) 11:20:25 435.465 / 435.565
PCSat 02 Jul 11:07:35 11:12:57 57° 56° (NE) 11:18:16 145.827
M-CUBED/EXP-1 PRIME 02 Jul 11:10:30 11:14:31 88° 111° (ESE) 11:18:51 437.505
DUCHIFAT 1 02 Jul 11:13:48 11:15:49 13° 62° (ENE) 11:17:51 145.980
AAUSAT CUBESAT 2 02 Jul 11:16:53 11:20:26 28° 291° (WNW) 11:23:59 437.432
QB50P2 02 Jul 11:17:04 11:19:50 17° 64° (ENE) 11:22:36 145.880/145.840
POLYITAN 1 02 Jul 11:19:39 11:22:27 18° 65° (ENE) 11:25:16 437.675
TIGRISAT 02 Jul 11:28:23 11:32:41 70° 258° (WSW) 11:37:08 435.000
UNISAT 6 02 Jul 11:35:05 11:39:20 55° 260° (W) 11:43:43 437.425
BUGSAT 1 02 Jul 11:51:36 11:53:53 15° 64° (ENE) 11:56:10 437.445
BEESAT 3 02 Jul 11:56:09 11:59:53 41° 243° (WSW) 12:03:36 437.485
JAS-2 02 Jul 11:57:30 12:02:41 22° 61° (ENE) 12:07:31 435.910
CUBEBUG 2 02 Jul 11:57:43 12:00:37 17° 296° (WNW) 12:03:32 437.445
AUBIESAT-1 02 Jul 12:02:14 12:05:47 31° 295° (WNW) 12:09:34 437.475
ISS 02 Jul 12:04:02 12:06:18 17° 5° (N) 12:08:33 145.825
ZACube-1 02 Jul 12:04:29 12:08:18 26° 292° (WNW) 12:12:06 437.345
ESTCUBE 1 02 Jul 12:04:38 12:07:06 14° 91° (E) 12:09:34 437.505/2401.250
Oscar 11 02 Jul 12:06:18 12:09:43 23° 293° (WNW) 12:13:07 145.826/435.025
ANTELSAT 02 Jul 12:15:56 12:19:15 21° 267° (W) 12:22:39 437.575/2403.000
FUNcube-1 02 Jul 12:20:02 12:23:22 20° 295° (WNW) 12:26:42 145.935
AIST 2 02 Jul 12:23:17 12:25:54 16° 40° (NE) 12:28:30 435.215
CUBEBUG 1 02 Jul 12:26:15 12:28:57 16° 92° (E) 12:31:38 437.445
DELFI C3 02 Jul 12:28:06 12:31:20 24° 292° (WNW) 12:34:33 145.870
NANOSAT C BR1 02 Jul 12:28:23 12:32:33 89° 236° (SW) 12:36:47 145.865
QB50P1 02 Jul 12:33:56 12:38:06 74° 257° (WSW) 12:42:20 145.935-145.965
POPSAT HIP 1 02 Jul 12:37:36 12:41:46 68° 259° (W) 12:45:58 437.405
HUMSAT D 02 Jul 12:39:46 12:43:51 41° 288° (WNW) 12:47:52 437.325/437.525
O/OREOS (USA 219) 02 Jul 12:40:18 12:44:47 69° 66° (ENE) 12:49:15 437.305
RS-15 02 Jul 12:40:18 12:51:44 86° 121° (ESE) 13:03:52 29.354- 29.394
BEESAT 2 02 Jul 12:42:59 12:46:16 25° 246° (WSW) 12:49:33 435.950
VELOX 1 02 Jul 12:45:09 12:48:40 23° 95° (E) 12:52:11 145.980
YUBILEINY 02 Jul 12:46:54 12:54:52 42° 87° (E) 13:02:55 435.215
DUCHIFAT 1 02 Jul 12:46:56 12:51:01 58° 259° (W) 12:55:10 145.980
QB50P2 02 Jul 12:51:17 12:55:17 44° 261° (W) 12:59:21 145.880/145.840
PCSat 02 Jul 12:51:54 12:55:54 21° 254° (WSW) 12:59:52 145.827
POLYITAN 1 02 Jul 12:53:56 12:57:55 43° 261° (W) 13:01:58 437.675
SPROUT 02 Jul 12:57:00 12:59:14 14° 91° (E) 13:01:28 437.525
Cosmos 2491 02 Jul 13:02:27 13:11:07 72° 266° (W) 13:19:46 435.465 / 435.565
UKube-1 02 Jul 13:03:01 13:06:23 22° 95° (E) 13:09:44 .
Cosmos 2504 02 Jul 13:10:02 13:15:06 18° 75° (ENE) 13:20:19 435.465 / 435.565
BUGSAT 1 02 Jul 13:25:01 13:28:52 46° 260° (W) 13:32:46 437.445
AISAT 02 Jul 13:25:55 13:30:18 68° 102° (ESE) 13:34:41 437.250
DX 1 02 Jul 13:30:31 13:34:47 54° 101° (E) 13:39:02 434.975-435.025
50 SAT 02 Jul 13:33:24 13:37:06 84° 283° (WNW) 13:40:45 437.505
JAS-2 02 Jul 13:39:34 13:47:07 80° 256° (WSW) 13:53:55 435.910
ESTCUBE 1 02 Jul 13:39:51 13:44:16 55° 287° (WNW) 13:48:38 437.505/2401.250
ISS 02 Jul 13:40:20 13:43:25 36° 25° (NNE) 13:46:28 145.825
AO-7 02 Jul 13:42:15 13:42:58 10° 38° (NE) 13:43:40 29.400- 29.500
Oscar 19 02 Jul 13:47:43 13:52:36 46° 70° (ENE) 13:57:30 437.125/150
AIST 2 02 Jul 14:00:42 14:04:52 72° 238° (WSW) 14:08:59 435.215
TISAT 1 02 Jul 14:00:44 14:03:32 17° 93° (E) 14:06:20 437.305
CUBEBUG 1 02 Jul 14:01:20 14:05:29 46° 288° (WNW) 14:09:37 437.445
VELOX 1 02 Jul 14:21:14 14:25:11 33° 291° (WNW) 14:29:07 145.980
ITAMSAT 1 02 Jul 14:21:52 14:25:06 17° 60° (ENE) 14:28:21 435.822/435.867
O/OREOS (USA 219) 02 Jul 14:22:00 14:23:33 12° 262° (W) 14:25:07 437.305
SPROUT 02 Jul 14:31:18 14:35:30 53° 287° (WNW) 14:39:41 437.525
UKube-1 02 Jul 14:38:36 14:42:30 34° 291° (WNW) 14:46:23 .
Gurwin Techsat 1B 02 Jul 14:39:29 14:44:42 61° 72° (ENE) 14:49:58 435.225
YUBILEINY 02 Jul 14:43:23 14:51:36 44° 287° (WNW) 14:59:55 435.215
RS-15 02 Jul 14:55:15 15:05:49 37° 328° (NNW) 15:16:53 29.354- 29.394
SO-50 02 Jul 14:56:17 14:59:53 21° 111° (ESE) 15:03:28 436.795
SWISSCUBE 02 Jul 14:57:03 14:59:56 16° 91° (E) 15:02:48 437.505
Cosmos 2504 02 Jul 14:58:48 15:07:03 87° 98° (E) 15:15:53 435.465 / 435.565
Cosmos 2491 02 Jul 15:02:41 15:06:16 13° 287° (WNW) 15:09:52 435.465 / 435.565
AISAT 02 Jul 15:04:13 15:06:14 13° 299° (WNW) 15:08:14 437.250
DX 1 02 Jul 15:08:01 15:10:32 15° 297° (WNW) 15:13:02 434.975-435.025
ISS 02 Jul 15:16:52 15:19:49 32° 222° (SW) 15:22:45 145.825
BEESAT 02 Jul 15:21:00 15:24:55 25° 95° (E) 15:28:49 436.000
ITUPSAT 1 02 Jul 15:24:57 15:28:59 26° 95° (E) 15:33:01 437.325
AO-7 02 Jul 15:25:50 15:33:28 42° 60° (ENE) 15:41:09 29.400- 29.500
Oscar 19 02 Jul 15:28:11 15:32:08 22° 267° (W) 15:36:06 437.125/150
JAS-2 02 Jul 15:29:10 15:32:51 14° 272° (W) 15:36:24 435.910
TISAT 1 02 Jul 15:35:24 15:39:22 41° 289° (WNW) 15:43:21 437.305
ITAMSAT 1 02 Jul 15:58:47 16:03:59 70° 258° (WSW) 16:09:14 435.822/435.867
Gurwin Techsat 1B 02 Jul 16:21:36 16:25:05 17° 269° (W) 16:28:33 435.225
SWISSCUBE 02 Jul 16:33:23 16:38:06 58° 288° (WNW) 16:42:46 437.505
SO-50 02 Jul 16:35:13 16:40:01 54° 308° (NW) 16:44:48 436.795
KKS-1 02 Jul 16:35:16 16:38:10 17° 92° (E) 16:41:02 437.445
